Regional Weather Roundup
Issued by NWS

Home | Current Version | Previous Version | Text Only | Print | Product List | Glossary On
Versions: 1 2 3 4 5 6 7 8 9 10 11 12 13 14 15 16 17 18 19 20 21 22 23 24 25 26 27 28 29 30 31 32 33 34 35 36 37 38 39 40 41 42 43 44 45 46 47 48 49 50
000
ASUS43 KTOP 150108
RWRKS

WEATHER ROUNDUP FOR KANSAS
NATIONAL WEATHER SERVICE GOODLAND KS
800 PM CDT SUN SEP 14 2014

NOTE:  "FAIR" INDICATES FEW OR NO CLOUDS BELOW 12,000 FEET WITH NO
SIGNIFICANT WEATHER AND/OR OBSTRUCTIONS TO VISIBILITY.

KSZ001>006-013>018-027>032-041>047-150200-
NORTHWEST KANSAS

CITY           SKY/WX    TMP DP  RH WIND       PRES   REMARKS
GOODLAND       CLEAR     68  56  65 S10       29.98R
HAYS           CLEAR     75  63  64 SE13      29.93F
HILL CITY      CLEAR     74  61  63 E8        29.93F
RUSSELL        PTCLDY    75  62  64 SE12      29.93F
$$

KSZ061>065-074>080-084>089-150200-
SOUTHWEST KANSAS

CITY           SKY/WX    TMP DP  RH WIND       PRES   REMARKS
DODGE CITY     CLEAR     80  57  45 S15G25    29.98F
ELKHART          N/A    N/A N/A N/A MISG        N/A
GARDEN CITY    CLEAR     78  59  51 S13       29.96F
GREAT BEND     CLEAR     79  61  53 S15G21    29.96S
LIBERAL        CLEAR     79  57  47 S18       30.04R
PRATT          CLEAR     77  55  47 S16       30.02S
$$

KSZ066>073-081>083-090>101-150200-
SOUTHEAST KANSAS

CITY           SKY/WX    TMP DP  RH WIND       PRES   REMARKS
CHANUTE        CLEAR     68  58  70 SE7       30.10S
COFFEYVILLE    CLEAR     70  61  73 S5        30.10S
HUTCHINSON     CLEAR     77  59  53 S15       30.00F
MEDICINE LODGE   N/A     77  60  55 S15       30.01S
NEWTON         CLEAR     73  57  56 S15       30.05S
PARSONS        CLEAR     70  59  68 SE3       30.11S
WICHITA INTL   PTCLDY    77  59  53 S18G24    30.02F
WICHITA JABRA  CLEAR     74  60  61 S13       30.03F
WINFIELD       CLEAR     72  63  73 S10       30.07F
$$

KSZ007>012-019>026-033>040-048>060-102>105-150200-
NORTHEAST KANSAS

CITY           SKY/WX    TMP DP  RH WIND       PRES   REMARKS
CONCORDIA      CLOUDY    68  61  78 E5        30.00F
EMPORIA        CLOUDY    70  60  70 SE9       30.07F
LAWRENCE       CLOUDY    68  56  65 SE6       30.09S
MANHATTAN      PTCLDY    70  58  65 SE7       30.03F
MARYSVILLE     CLOUDY    63  59  88 E6        30.04F
OLATHE IND     CLEAR     64  57  78 S8        30.10S
OLATHE EXE     CLEAR     63  56  78 S8        30.09S
SALINA         PTCLDY    74  60  61 SE14      29.98F
TOPEKA BILLARD PTCLDY    68  58  70 SE9       30.07F
TOPEKA FORBES  PTCLDY    67  57  70 SE6       30.07F
$$


USA.gov is the U.S. government's official web portal to all federal, state and local government web resources and services.